Location: Dodgeville
(42.9600°N, 90.1300°W)
Time: 10:14:02
(UTC-05:00)

Uosat F - Visible Passes

Search period start: 29 September 2016 00:00
Search period end: 09 October 2016 00:00
Orbit: 751 x 761 km, 98.8° (Epoch: 29 September)

Date Brightness Start Highest point End Pass type
(mag) Time Alt. Az. Time Alt. Az. Time Alt. Az.
29 Sep 14.0 06:19:24 10° NE 06:23:21 22° E 06:27:15 10° SE visible
29 Sep 13.5 19:12:13 10° SSW 19:16:31 29° W 19:20:52 10° NW visible
01 Oct 14.1 19:33:03 10° SW 19:36:35 19° W 19:40:08 10° NW visible
02 Oct 14.4 06:00:49 10° ENE 06:03:34 15° E 06:06:19 10° ESE visible
03 Oct 14.5 19:54:41 10° WSW 19:56:42 12° W 19:58:43 10° WNW visible
04 Oct 14.0 06:19:45 10° NE 06:23:40 22° E 06:27:34 10° SE visible
04 Oct 13.4 19:12:31 10° SSW 19:16:51 29° W 19:21:13 10° NW visible
06 Oct 14.1 19:33:21 10° SW 19:36:54 19° W 19:40:29 10° NW visible
07 Oct 14.4 06:01:10 10° ENE 06:03:54 14° E 06:06:37 10° ESE visible
07 Oct 12.5 18:52:24 10° S 18:57:10 45° W 19:02:00 10° NNW visible
08 Oct 14.5 19:54:56 10° WSW 19:57:01 12° W 19:59:06 10° WNW visible
